FW2966 New Rochelle NY US current weather conditions

sailwx.info

Wind from 080

Air temperature 20.6° C
Dewpoint 19.9° C

Last reported at 2020-Aug-08 11:01 UTC.
Time now 2020-Aug-08 12:04 UTC

Location: N 40°55' W 073°46'.
View on Google Maps.

See reports from other nearby stations

  
Tides and Currents Weather Stations Pressure Air Temp Water Temp Dewpoint Dewpoint Depression Visibility Wind Speed Wind Dir Waves Ship Positions
date/time (UTC)wind fromknots sea level pressurealtimeterstation pressurevisibilityair tempwater tempwave heightnotes
2020-Aug-08 11:01 080 20.6
2020-Aug-08 10:47 080 20.0
2020-Aug-08 10:32 082 20.0
2020-Aug-08 10:16 082 20.0
2020-Aug-08 10:02 082 20.0
2020-Aug-08 09:48 082 20.0
2020-Aug-08 09:31 082 20.0
2020-Aug-08 09:17 082 19.4
2020-Aug-08 09:01 088 19.4
2020-Aug-08 08:46 088 19.4
2020-Aug-08 08:31 088 19.4
2020-Aug-08 08:15 088 19.4
2020-Aug-08 08:01 088 20.0
2020-Aug-08 07:46 088 20.0
2020-Aug-08 07:31 088 20.0
2020-Aug-08 07:16 088 20.0
2020-Aug-08 07:01 088 20.0
2020-Aug-08 06:45 115 20.0
2020-Aug-08 06:31 115 20.6
2020-Aug-08 06:16 115 20.6
2020-Aug-08 06:01 115 20.0
2020-Aug-08 05:45 115 20.0
2020-Aug-08 05:31 115 20.0
2020-Aug-08 05:15 115 20.6
2020-Aug-08 05:00 115 20.6
2020-Aug-08 04:46 115 20.6
2020-Aug-08 04:30 115 20.6
2020-Aug-08 04:15 115 20.6
2020-Aug-08 04:00 115 20.6
2020-Aug-08 03:45 115 20.6
2020-Aug-08 03:31 115 20.6
2020-Aug-08 03:15 115 20.6
2020-Aug-08 03:00 114 20.6
2020-Aug-08 02:45 080 20.6
2020-Aug-08 02:30 165 21.1
2020-Aug-08 02:15 015 21.1
2020-Aug-08 02:00 036 21.1
2020-Aug-08 01:45 036 21.1
2020-Aug-08 01:30 317 21.1
2020-Aug-08 01:16 119 21.7
2020-Aug-08 01:00 101 21.7
2020-Aug-08 00:45 107 21.7
2020-Aug-08 00:30 116 22.2
2020-Aug-08 00:15 103 22.2
2020-Aug-08 00:00 113 22.8
2020-Aug-07 23:46 113 22.8
2020-Aug-07 23:30 109 22.8
2020-Aug-07 23:16 115 3 gusting 7 22.8
2020-Aug-07 23:00 094 22.8
2020-Aug-07 22:45 107 22.8
2020-Aug-07 22:30 115 1 gusting 8 23.3
2020-Aug-07 22:16 111 23.3
2020-Aug-07 22:00 106 23.3
2020-Aug-07 21:45 134 4 gusting 11 23.3
2020-Aug-07 21:30 102 0 gusting 8 23.9
2020-Aug-07 21:15 105 4 gusting 10 23.9
2020-Aug-07 21:00 099 4 gusting 8 23.9
2020-Aug-07 20:45 111 1 gusting 9 24.4
2020-Aug-07 20:30 130 23.9
2020-Aug-07 20:15 133 23.9
2020-Aug-07 20:00 122 23.9
2020-Aug-07 19:45 114 23.3
2020-Aug-07 19:30 105 0 gusting 7 23.9
2020-Aug-07 19:15 128 0 gusting 7 23.9
2020-Aug-07 19:00 109 23.3
2020-Aug-07 18:45 103 6 gusting 9 23.9
2020-Aug-07 18:30 136 23.3
2020-Aug-07 18:15 130 23.9
2020-Aug-07 18:00 125 1 gusting 8 23.9
2020-Aug-07 17:45 132 23.3
2020-Aug-07 17:30 123 0 gusting 7 23.9
2020-Aug-07 17:15 093 7 gusting 11 23.3
2020-Aug-07 17:00 095 6 gusting 11 23.9
2020-Aug-07 16:45 105 6 gusting 12 23.9
2020-Aug-07 16:30 123 0 gusting 6 23.9
2020-Aug-07 16:16 128 24.4
2020-Aug-07 16:02 130 2 gusting 11 23.9
2020-Aug-07 15:48 104 23.9
2020-Aug-07 15:32 123 4 gusting 8 23.3
2020-Aug-07 15:16 120 22.8
2020-Aug-07 15:01 205 22.2
2020-Aug-07 14:46 148 21.7
2020-Aug-07 14:31 114 21.7
2020-Aug-07 14:16 181 21.1
2020-Aug-07 14:02 250 21.1
2020-Aug-07 13:46 168 20.6
2020-Aug-07 13:31 173 20.6
2020-Aug-07 13:17 178 20.6
2020-Aug-07 13:03 275 20.6
2020-Aug-07 12:46 274 20.6
2020-Aug-07 12:31 275 20.6
2020-Aug-07 12:16 184 20.6
2020-Aug-07 12:01 133 20.6
2020-Aug-07 11:46 187 20.6
2020-Aug-07 11:30 187 20.6
2020-Aug-07 11:16 231 20.6
2020-Aug-07 11:01 231 20.6
2020-Aug-07 10:45 231 20.6
2020-Aug-07 10:30 231 20.6
2020-Aug-07 10:16 231 21.1
2020-Aug-07 10:01 231 21.1
2020-Aug-07 09:45 231 21.1
2020-Aug-07 09:30 231 21.1
2020-Aug-07 09:15 163 21.1
2020-Aug-07 09:00 163 21.1
2020-Aug-07 08:45 162 21.1
2020-Aug-07 08:30 162 21.1
2020-Aug-07 08:15 162 20.6
2020-Aug-07 08:01 163 20.6
2020-Aug-07 07:45 163 20.6
2020-Aug-07 07:31 163 20.6
2020-Aug-07 07:15 163 20.6
2020-Aug-07 07:00 163 20.6
2020-Aug-07 06:45 163 20.6
2020-Aug-07 06:30 163 20.6
2020-Aug-07 06:15 163 21.1
2020-Aug-07 06:00 163 21.1
2020-Aug-07 05:45 163 21.1
2020-Aug-07 05:30 163 21.1
2020-Aug-07 05:15 163 21.1
2020-Aug-07 05:00 163 21.1
2020-Aug-07 04:45 163 21.1
2020-Aug-07 04:30 163 21.7
2020-Aug-07 04:15 163 21.7
2020-Aug-07 04:01 163 21.7
2020-Aug-07 03:48 163 21.7
2020-Aug-07 03:31 163 21.7
2020-Aug-07 03:16 163 22.2
2020-Aug-07 03:02 163 22.2
2020-Aug-07 02:46 163 22.2
2020-Aug-07 02:32 163 22.2
2020-Aug-07 02:16 163 22.2
2020-Aug-07 02:02 163 22.8
2020-Aug-07 01:45 163 22.8
2020-Aug-07 01:32 163 23.3
2020-Aug-07 01:17 163 23.3
2020-Aug-07 01:01 163 23.3
2020-Aug-07 00:46 163 23.3
2020-Aug-07 00:31 163 23.3
2020-Aug-07 00:16 163 23.9
2020-Aug-07 00:01 163 23.9
2020-Aug-06 23:47 163 23.9
2020-Aug-06 23:32 163 23.9
2020-Aug-06 23:16 163 24.4
2020-Aug-06 23:02 134 24.4
2020-Aug-06 22:46 135 23.9
2020-Aug-06 22:32 176 24.4
2020-Aug-06 22:16 168 25.0
2020-Aug-06 22:01 112 25.0
2020-Aug-06 21:46 113 25.0
2020-Aug-06 21:30 102 25.0
2020-Aug-06 21:15 104 25.0
2020-Aug-06 21:01 101 25.0
2020-Aug-06 20:46 113 25.0
2020-Aug-06 20:31 113 25.0
2020-Aug-06 20:16 108 25.0
2020-Aug-06 20:01 105 25.0
2020-Aug-06 19:46 111 25.0
2020-Aug-06 19:31 098 25.0
2020-Aug-06 19:16 115 25.6
2020-Aug-06 19:01 135 25.0
2020-Aug-06 18:47 118 25.0
2020-Aug-06 18:30 109 25.0
2020-Aug-06 18:16 122 24.4
2020-Aug-06 18:01 105 1 gusting 7 24.4
2020-Aug-06 17:46 113 4 gusting 9 24.4
2020-Aug-06 17:30 140 24.4
2020-Aug-06 17:16 115 6 gusting 10 23.9
2020-Aug-06 17:01 105 3 gusting 8 24.4
2020-Aug-06 16:46 107 23.9
2020-Aug-06 16:30 104 23.9
2020-Aug-06 16:16 116 22.8
2020-Aug-06 16:00 113 22.8
2020-Aug-06 15:45 105 22.8
2020-Aug-06 15:31 130 22.8
2020-Aug-06 15:15 113 22.8
2020-Aug-06 15:00 103 2 gusting 6 22.8
2020-Aug-06 14:45 114 22.2
2020-Aug-06 14:31 112 22.2
2020-Aug-06 14:15 098 22.2
2020-Aug-06 14:00 098 22.2
2020-Aug-06 13:45 114 22.2
2020-Aug-06 13:30 153 22.8
2020-Aug-06 13:15 134 22.8
2020-Aug-06 13:00 339 22.8
2020-Aug-06 12:45 182 22.8
2020-Aug-06 12:30 145 22.2
2020-Aug-06 12:15 127 22.2
2020-Aug-06 12:00 211 21.7